,,PA_Meas_PMT16A,,PR_Meas_QMR101_102,,RH_Meas_QMH101,,SR_Meas_QMS101,,TA_Meas_QMH101,,GenWind,,GenWind,
time,status,PA,status,PR,status,RH,status,SR,status,TA,status,DirAvg,status,SpdAvg,
2014-01-03, 00:00:04,VALID,918.8,VALID,0,VALID,95.8645,VALID,0,VALID,20.9917,VALID,69,VALID,0,
2014-01-03, 00:01:04,VALID,918.794,VALID,0,VALID,95.7806,VALID,0,VALID,20.9722,VALID,69,VALID,0,
2014-01-03, 00:02:04,VALID,918.8,VALID,0,VALID,95.712,VALID,0,VALID,20.9316,VALID,69,VALID,0,
2014-01-03, 00:03:04,VALID,918.775,VALID,0,VALID,95.6891,VALID,0,VALID,20.912,VALID,69,VALID,0,
2014-01-03, 00:04:04,VALID,918.756,VALID,0,VALID,95.6662,VALID,0.107441,VALID,20.8925,VALID,69,VALID,0,
2014-01-03, 00:05:04,VALID,918.73,VALID,0,VALID,95.6281,VALID,0,VALID,20.873,VALID,69,VALID,0,
2014-01-03, 00:06:04,VALID,918.759,VALID,0,VALID,95.6357,VALID,0,VALID,20.873,VALID,69,VALID,0,
2014-01-03, 00:07:04,VALID,918.762,VALID,0,VALID,95.6434,VALID,0,VALID,20.873,VALID,69,VALID,0,
2014-01-03, 00:08:04,VALID,918.772,VALID,0,VALID,95.651,VALID,0.107441,VALID,20.891,VALID,69,VALID,0,
2014-01-03, 00:09:04,VALID,918.753,VALID,0,VALID,95.6586,VALID,0,VALID,20.912,VALID,69,VALID,0.181641,
2014-01-03, 00:10:04,VALID,918.746,VALID,0,VALID,95.6434,VALID,0,VALID,20.9511,VALID,69,VALID,0.0144531,
2014-01-03, 00:11:04,VALID,918.734,VALID,0,VALID,95.651,VALID,0,VALID,20.9706,VALID,68,VALID,0,
2014-01-03, 00:12:04,VALID,918.763,VALID,0,VALID,95.6205,VALID,0,VALID,20.9901,VALID,69,VALID,0,
2014-01-03, 00:13:04,VALID,918.729,VALID,0,VALID,95.6129,VALID,0,VALID,21.0291,VALID,69,VALID,0,
2014-01-03, 00:14:04,VALID,918.774,VALID,0,VALID,95.5976,VALID,0,VALID,21.008,VALID,69,VALID,0,
2014-01-03, 00:15:04,VALID,918.762,VALID,0,VALID,95.5367,VALID,0,VALID,21.0291,VALID,69,VALID,0,
2014-01-03, 00:16:04,VALID,918.747,VALID,0,VALID,95.4375,VALID,0,VALID,21.0096,VALID,69,VALID,0,
2014-01-03, 00:17:04,VALID,918.725,VALID,0,VALID,95.4071,VALID,0,VALID,20.9901,VALID,69,VALID,0.3,
2014-01-03, 00:18:04,VALID,918.734,VALID,0,VALID,95.3766,VALID,0,VALID,21.0112,VALID,69,VALID,0.301562,
2014-01-03, 00:19:04,VALID,918.702,VALID,0,VALID,95.3689,VALID,0,VALID,21.0096,VALID,69,VALID,0.292188,
2014-01-03, 00:20:04,VALID,918.688,VALID,0,VALID,95.3156,VALID,0,VALID,20.9885,VALID,69,VALID,0.379297,
2014-01-03, 00:21:04,VALID,918.684,VALID,0,VALID,95.3308,VALID,0,VALID,21.0096,VALID,69,VALID,0.50625,
2014-01-03, 00:22:04,VALID,918.654,VALID,0,VALID,95.3079,VALID,0,VALID,21.0096,VALID,65,VALID,0.509766,
2014-01-03, 00:23:04,VALID,918.606,VALID,0,VALID,95.2622,VALID,0,VALID,21.0096,VALID,66,VALID,0.302734,
2014-01-03, 00:24:04,VALID,918.597,VALID,0,VALID,95.2317,VALID,0,VALID,21.0096,VALID,65,VALID,0,
2014-01-03, 00:25:04,VALID,918.606,VALID,0,VALID,95.2317,VALID,0,VALID,21.0291,VALID,66,VALID,0,
2014-01-03, 00:26:04,VALID,918.578,VALID,0,VALID,95.2165,VALID,0,VALID,21.0486,VALID,65,VALID,0.201172,
2014-01-03, 00:27:04,VALID,918.6,VALID,0,VALID,95.1783,VALID,0,VALID,21.0291,VALID,66,VALID,0.260547,
2014-01-03, 00:28:04,VALID,918.59,VALID,0,VALID,95.1326,VALID,0,VALID,21.0291,VALID,66,VALID,0.212109,
2014-01-03, 00:29:04,VALID,918.571,VALID,0,VALID,95.1402,VALID,0,VALID,21.0096,VALID,66,VALID,0.210938,
2014-01-03, 00:30:04,VALID,918.558,VALID,0,VALID,95.1326,VALID,0.107441,VALID,20.9901,VALID,66,VALID,0,
2014-01-03, 00:31:04,VALID,918.53,VALID,0,VALID,95.1631,VALID,0,VALID,20.9511,VALID,65,VALID,0.233203,
2014-01-03, 00:32:04,VALID,918.525,VALID,0,VALID,95.1783,VALID,0,VALID,20.912,VALID,66,VALID,0.221875,
2014-01-03, 00:33:04,VALID,918.566,VALID,0,VALID,95.1783,VALID,0,VALID,20.8925,VALID,66,VALID,0.315234,
2014-01-03, 00:34:04,VALID,918.508,VALID,0,VALID,95.2012,VALID,0,VALID,20.873,VALID,66,VALID,0.5125,
2014-01-03, 00:35:04,VALID,918.488,VALID,0,VALID,95.2165,VALID,0,VALID,20.873,VALID,66,VALID,0.520312,
2014-01-03, 00:36:04,VALID,918.501,VALID,0,VALID,95.2165,VALID,0,VALID,20.8551,VALID,66,VALID,0.691797,
2014-01-03, 00:37:04,VALID,918.473,VALID,0,VALID,95.2393,VALID,0.107441,VALID,20.795,VALID,66,VALID,0.588281,
2014-01-03, 00:38:04,VALID,918.467,VALID,0,VALID,95.2546,VALID,0,VALID,20.795,VALID,70,VALID,0.413281,
2014-01-03, 00:39:04,VALID,918.504,VALID,0,VALID,95.2698,VALID,0,VALID,20.7966,VALID,70,VALID,0.394531,
2014-01-03, 00:40:04,VALID,918.46,VALID,0,VALID,95.3079,VALID,0,VALID,20.756,VALID,70,VALID,0.469531,
2014-01-03, 00:41:04,VALID,918.465,VALID,0,VALID,95.3613,VALID,0,VALID,20.756,VALID,70,VALID,0.297656,
2014-01-03, 00:42:04,VALID,918.462,VALID,0,VALID,95.3918,VALID,0,VALID,20.7349,VALID,71,VALID,0.517578,
2014-01-03, 00:43:04,VALID,918.443,VALID,0,VALID,95.4299,VALID,0,VALID,20.7365,VALID,70,VALID,0.5125,
2014-01-03, 00:44:04,VALID,918.458,VALID,0,VALID,95.4604,VALID,0,VALID,20.7381,VALID,70,VALID,0.572656,
2014-01-03, 00:45:04,VALID,918.452,VALID,0,VALID,95.5214,VALID,0,VALID,20.6959,VALID,71,VALID,0.522656,
2014-01-03, 00:46:04,VALID,918.464,VALID,0,VALID,95.5824,VALID,0,VALID,20.7381,VALID,70,VALID,0.623438,
2014-01-03, 00:47:04,VALID,918.484,VALID,0,VALID,95.6129,VALID,0,VALID,20.6975,VALID,70,VALID,0.408984,
2014-01-03, 00:48:04,VALID,918.481,VALID,0,VALID,95.6586,VALID,0,VALID,20.6975,VALID,70,VALID,0.426562,
2014-01-03, 00:49:04,VALID,918.483,VALID,0,VALID,95.6891,VALID,0,VALID,20.6975,VALID,70,VALID,0.290234,
2014-01-03, 00:50:04,VALID,918.504,VALID,0,VALID,95.712,VALID,0,VALID,20.678,VALID,70,VALID,0.109375,
2014-01-03, 00:51:04,VALID,918.48,VALID,0,VALID,95.7196,VALID,0,VALID,20.6585,VALID,71,VALID,0,
2014-01-03, 00:52:04,VALID,918.493,VALID,0,VALID,95.6967,VALID,0,VALID,20.639,VALID,70,VALID,0.475,
2014-01-03, 00:53:04,VALID,918.521,VALID,0,VALID,95.7196,VALID,0,VALID,20.6405,VALID,70,VALID,0.776172,
2014-01-03, 00:54:04,VALID,918.526,VALID,0,VALID,95.7501,VALID,0,VALID,20.6194,VALID,69,VALID,0.963672,
2014-01-03, 00:55:04,VALID,918.485,VALID,0,VALID,95.7806,VALID,0,VALID,20.5609,VALID,59,VALID,1.06836,
2014-01-03, 00:56:04,VALID,918.475,VALID,0,VALID,95.8111,VALID,0,VALID,20.5219,VALID,58,VALID,0.880469,
2014-01-03, 00:57:04,VALID,918.438,VALID,0,VALID,95.8492,VALID,0,VALID,20.5219,VALID,58,VALID,0.841406,
2014-01-03, 00:58:04,VALID,918.449,VALID,0,VALID,95.8873,VALID,0,VALID,20.4829,VALID,58,VALID,0.718359,
2014-01-03, 00:59:04,VALID,918.438,VALID,0,VALID,95.9559,VALID,0,VALID,20.5024,VALID,58,VALID,0.508594,
2014-01-03, 01:00:04,VALID,918.445,VALID,0,VALID,96.0627,VALID,0,VALID,20.5024,VALID,58,VALID,0.353125,
2014-01-03, 01:01:04,VALID,918.443,VALID,0,VALID,96.0855,VALID,0,VALID,20.5235,VALID,58,VALID,0.0523437,
2014-01-03, 01:02:04,VALID,918.439,VALID,0,VALID,96.1389,VALID,0,VALID,20.5024,VALID,58,VALID,0,
2014-01-03, 01:03:04,VALID,918.461,VALID,0,VALID,96.1846,VALID,0,VALID,20.5235,VALID,58,VALID,0,
2014-01-03, 01:04:04,VALID,918.466,VALID,0,VALID,96.1999,VALID,0,VALID,20.5235,VALID,58,VALID,0,
2014-01-03, 01:05:04,VALID,918.438,VALID,0,VALID,96.1694,VALID,0,VALID,20.4634,VALID,58,VALID,0.201953,
2014-01-03, 01:06:04,VALID,918.445,VALID,0,VALID,96.1465,VALID,0,VALID,20.4049,VALID,58,VALID,0.691406,
2014-01-03, 01:07:04,VALID,918.438,VALID,0,VALID,96.1541,VALID,0,VALID,20.3854,VALID,58,VALID,0.769531,
2014-01-03, 01:08:04,VALID,918.409,VALID,0,VALID,96.2075,VALID,0,VALID,20.3854,VALID,58,VALID,0.658984,
2014-01-03, 01:09:04,VALID,918.386,VALID,0,VALID,96.2456,VALID,0,VALID,20.3854,VALID,58,VALID,0.673828,
2014-01-03, 01:10:04,VALID,918.419,VALID,0,VALID,96.2609,VALID,0,VALID,20.3659,VALID,58,VALID,0.685547,
2014-01-03, 01:11:04,VALID,918.413,VALID,0,VALID,96.2914,VALID,0,VALID,20.3674,VALID,58,VALID,0.700391,
2014-01-03, 01:12:04,VALID,918.372,VALID,0,VALID,96.3295,VALID,0,VALID,20.3869,VALID,58,VALID,0.628516,
2014-01-03, 01:13:04,VALID,918.351,VALID,0,VALID,96.3752,VALID,0,VALID,20.3854,VALID,58,VALID,0.671875,
2014-01-03, 01:14:04,VALID,918.372,VALID,0,VALID,96.3905,VALID,0,VALID,20.3659,VALID,58,VALID,0.568359,
2014-01-03, 01:15:04,VALID,918.309,VALID,0,VALID,96.3829,VALID,0,VALID,20.3674,VALID,58,VALID,0.532031,
2014-01-03, 01:16:04,VALID,918.31,VALID,0,VALID,96.421,VALID,0,VALID,20.3464,VALID,58,VALID,0.407422,
2014-01-03, 01:17:04,VALID,918.307,VALID,0,VALID,96.4362,VALID,0,VALID,20.3269,VALID,58,VALID,0.310937,
2014-01-03, 01:18:04,VALID,918.343,VALID,0,VALID,96.4667,VALID,0,VALID,20.3269,VALID,58,VALID,0.345313,
2014-01-03, 01:19:04,VALID,918.319,VALID,0,VALID,96.4591,VALID,0,VALID,20.3074,VALID,58,VALID,0.342969,
2014-01-03, 01:20:04,VALID,918.325,VALID,0,VALID,96.4819,VALID,0,VALID,20.3074,VALID,58,VALID,0.225,
2014-01-03, 01:21:04,VALID,918.325,VALID,0,VALID,96.5048,VALID,0,VALID,20.3479,VALID,58,VALID,0.172266,
2014-01-03, 01:22:04,VALID,918.374,VALID,0,VALID,96.5201,VALID,0,VALID,20.3659,VALID,58,VALID,0,
2014-01-03, 01:23:04,VALID,918.329,VALID,0,VALID,96.5353,VALID,0,VALID,20.4064,VALID,58,VALID,0,
2014-01-03, 01:24:04,VALID,918.348,VALID,0,VALID,96.5658,VALID,0,VALID,20.3854,VALID,58,VALID,0.232422,
2014-01-03, 01:25:04,VALID,918.35,VALID,0,VALID,96.5734,VALID,0,VALID,20.4064,VALID,58,VALID,0.260156,
2014-01-03, 01:26:04,VALID,918.32,VALID,0,VALID,96.5658,VALID,0,VALID,20.3869,VALID,58,VALID,0.182031,
2014-01-03, 01:27:04,VALID,918.326,VALID,0,VALID,96.6039,VALID,0,VALID,20.4049,VALID,58,VALID,0.206641,
2014-01-03, 01:28:04,VALID,918.322,VALID,0,VALID,96.6115,VALID,0,VALID,20.4244,VALID,58,VALID,0.01875,
2014-01-03, 01:29:04,VALID,918.328,VALID,0,VALID,96.5887,VALID,0,VALID,20.4454,VALID,58,VALID,0.270703,
2014-01-03, 01:30:04,VALID,918.323,VALID,0,VALID,96.642,VALID,0,VALID,20.4439,VALID,58,VALID,0.504687,
2014-01-03, 01:31:04,VALID,918.274,VALID,0,VALID,96.6497,VALID,0,VALID,20.4845,VALID,154,VALID,0.903516,
2014-01-03, 01:32:04,VALID,918.271,VALID,0,VALID,96.6573,VALID,0,VALID,20.4634,VALID,154,VALID,0.643359,
2014-01-03, 01:33:04,VALID,918.235,VALID,0,VALID,96.642,VALID,0,VALID,20.4829,VALID,154,VALID,0.642969,
2014-01-03, 01:34:04,VALID,918.26,VALID,0,VALID,96.6573,VALID,0,VALID,20.4829,VALID,154,VALID,0.246094,
2014-01-03, 01:35:04,VALID,918.235,VALID,0,VALID,96.6725,VALID,0,VALID,20.5235,VALID,154,VALID,0.413281,
2014-01-03, 01:36:04,VALID,918.256,VALID,0,VALID,96.6725,VALID,0,VALID,20.5235,VALID,154,VALID,0.428125,
2014-01-03, 01:37:04,VALID,918.271,VALID,0,VALID,96.6878,VALID,0,VALID,20.5235,VALID,154,VALID,0.364453,
2014-01-03, 01:38:04,VALID,918.217,VALID,0,VALID,96.6802,VALID,0,VALID,20.5024,VALID,154,VALID,0.230469,
2014-01-03, 01:39:04,VALID,918.243,VALID,0,VALID,96.6954,VALID,0,VALID,20.5024,VALID,154,VALID,0.330859,
2014-01-03, 01:40:04,VALID,918.216,VALID,0,VALID,96.6878,VALID,0,VALID,20.5235,VALID,154,VALID,0.294922,
2014-01-03, 01:41:04,VALID,918.21,VALID,0,VALID,96.6954,VALID,0,VALID,20.543,VALID,154,VALID,0.521484,
2014-01-03, 01:42:04,VALID,918.176,VALID,0,VALID,96.703,VALID,0,VALID,20.5414,VALID,154,VALID,0.551953,
2014-01-03, 01:43:04,VALID,918.172,VALID,0,VALID,96.703,VALID,0,VALID,20.5609,VALID,154,VALID,0.307813,
2014-01-03, 01:44:04,VALID,918.155,VALID,0,VALID,96.7259,VALID,0,VALID,20.5625,VALID,154,VALID,0.457422,
2014-01-03, 01:45:04,VALID,918.13,VALID,0,VALID,96.7107,VALID,0,VALID,20.5414,VALID,154,VALID,0.476563,
2014-01-03, 01:46:04,VALID,918.089,VALID,0,VALID,96.7183,VALID,0,VALID,20.5414,VALID,154,VALID,0.452344,
2014-01-03, 01:47:04,VALID,918.103,VALID,0,VALID,96.7107,VALID,0,VALID,20.582,VALID,154,VALID,0.437109,
2014-01-03, 01:48:04,VALID,918.06,VALID,0,VALID,96.7107,VALID,0,VALID,20.6015,VALID,154,VALID,0.210547,
2014-01-03, 01:49:04,VALID,918.055,VALID,0,VALID,96.7259,VALID,0,VALID,20.5999,VALID,154,VALID,0,
2014-01-03, 01:50:04,VALID,918.019,VALID,0,VALID,96.7335,VALID,0,VALID,20.621,VALID,154,VALID,0.167187,
2014-01-03, 01:51:04,VALID,917.989,VALID,0,VALID,96.7183,VALID,0,VALID,20.621,VALID,154,VALID,0.169531,
2014-01-03, 01:52:04,VALID,917.972,VALID,0,VALID,96.7411,VALID,0,VALID,20.6405,VALID,154,VALID,0.190625,
2014-01-03, 01:53:04,VALID,917.934,VALID,0,VALID,96.7259,VALID,0,VALID,20.66,VALID,154,VALID,0.221094,
2014-01-03, 01:54:04,VALID,917.906,VALID,0,VALID,96.7183,VALID,0,VALID,20.6585,VALID,154,VALID,0.155078,
2014-01-03, 01:55:04,VALID,917.861,VALID,0,VALID,96.7259,VALID,0,VALID,20.66,VALID,154,VALID,0.442187,
2014-01-03, 01:56:04,VALID,917.808,VALID,0,VALID,96.7259,VALID,0,VALID,20.66,VALID,154,VALID,0.227734,
2014-01-03, 01:57:04,VALID,917.8,VALID,0,VALID,96.7107,VALID,0,VALID,20.639,VALID,154,VALID,0.0546875,
2014-01-03, 01:58:04,VALID,917.767,VALID,0,VALID,96.7259,VALID,0,VALID,20.66,VALID,154,VALID,0.319922,
2014-01-03, 01:59:04,VALID,917.774,VALID,0,VALID,96.7107,VALID,0,VALID,20.66,VALID,154,VALID,0.173438,
2014-01-03, 02:00:04,VALID,917.738,VALID,0,VALID,96.7335,VALID,0,VALID,20.6194,VALID,154,VALID,0.202344,
2014-01-03, 02:01:04,VALID,917.716,VALID,0,VALID,96.703,VALID,0,VALID,20.5999,VALID,154,VALID,0.096875,
2014-01-03, 02:02:04,VALID,917.699,VALID,0,VALID,96.703,VALID,0,VALID,20.5999,VALID,154,VALID,0.324609,
2014-01-03, 02:03:04,VALID,917.687,VALID,0,VALID,96.703,VALID,0,VALID,20.621,VALID,154,VALID,0.300781,
2014-01-03, 02:04:04,VALID,917.702,VALID,0,VALID,96.6725,VALID,0,VALID,20.5804,VALID,154,VALID,0.366797,
2014-01-03, 02:05:04,VALID,917.674,VALID,0,VALID,96.6802,VALID,0,VALID,20.5609,VALID,154,VALID,0.329688,
2014-01-03, 02:06:04,VALID,917.653,VALID,0,VALID,96.6954,VALID,0,VALID,20.5609,VALID,154,VALID,0.455078,
2014-01-03, 02:07:04,VALID,917.64,VALID,0,VALID,96.6954,VALID,0,VALID,20.6015,VALID,154,VALID,0.373047,
2014-01-03, 02:08:04,VALID,917.63,VALID,0,VALID,96.6802,VALID,0,VALID,20.6015,VALID,154,VALID,0.302344,
2014-01-03, 02:09:04,VALID,917.584,VALID,0,VALID,96.6725,VALID,0,VALID,20.621,VALID,154,VALID,0.399219,
2014-01-03, 02:10:04,VALID,917.567,VALID,0,VALID,96.642,VALID,0,VALID,20.5804,VALID,154,VALID,0.395703,
2014-01-03, 02:11:04,VALID,917.515,VALID,0,VALID,96.6573,VALID,0,VALID,20.6015,VALID,154,VALID,0.132031,
2014-01-03, 02:12:04,VALID,917.521,VALID,0,VALID,96.6573,VALID,0,VALID,20.5804,VALID,154,VALID,0,
2014-01-03, 02:13:04,VALID,917.526,VALID,0,VALID,96.6573,VALID,0,VALID,20.621,VALID,154,VALID,0,
2014-01-03, 02:14:04,VALID,917.479,VALID,0,VALID,96.6573,VALID,0,VALID,20.6194,VALID,154,VALID,0,
2014-01-03, 02:15:04,VALID,917.514,VALID,0,VALID,96.6573,VALID,0,VALID,20.6194,VALID,154,VALID,0.2,
2014-01-03, 02:16:04,VALID,917.496,VALID,0,VALID,96.642,VALID,0,VALID,20.5804,VALID,154,VALID,0.302344,
2014-01-03, 02:17:04,VALID,917.483,VALID,0,VALID,96.6497,VALID,0,VALID,20.5625,VALID,154,VALID,0.433594,
2014-01-03, 02:18:04,VALID,917.488,VALID,0,VALID,96.6497,VALID,0,VALID,20.543,VALID,154,VALID,0.475,
2014-01-03, 02:19:04,VALID,917.478,VALID,0,VALID,96.6268,VALID,0,VALID,20.5235,VALID,154,VALID,0.571875,
2014-01-03, 02:20:04,VALID,917.464,VALID,0,VALID,96.6268,VALID,0,VALID,20.4829,VALID,154,VALID,0.498828,
2014-01-03, 02:21:04,VALID,917.51,VALID,0,VALID,96.6039,VALID,0,VALID,20.4634,VALID,154,VALID,0.140625,
2014-01-03, 02:22:04,VALID,917.486,VALID,0,VALID,96.6115,VALID,0,VALID,20.4439,VALID,154,VALID,0.0992187,
2014-01-03, 02:23:04,VALID,917.457,VALID,0,VALID,96.6115,VALID,0,VALID,20.4845,VALID,154,VALID,0,
2014-01-03, 02:24:04,VALID,917.461,VALID,0,VALID,96.642,VALID,0,VALID,20.504,VALID,154,VALID,0,
2014-01-03, 02:25:04,VALID,917.45,VALID,0,VALID,96.642,VALID,0,VALID,20.5024,VALID,154,VALID,0,
2014-01-03, 02:26:04,VALID,917.436,VALID,0,VALID,96.642,VALID,0,VALID,20.5219,VALID,154,VALID,0,
2014-01-03, 02:27:04,VALID,917.448,VALID,0,VALID,96.6344,VALID,0,VALID,20.5219,VALID,154,VALID,0,
2014-01-03, 02:28:04,VALID,917.406,VALID,0,VALID,96.642,VALID,0,VALID,20.5024,VALID,154,VALID,0,
2014-01-03, 02:29:04,VALID,917.414,VALID,0,VALID,96.6115,VALID,0,VALID,20.504,VALID,154,VALID,0,
2014-01-03, 02:30:04,VALID,917.371,VALID,0,VALID,96.5887,VALID,0,VALID,20.465,VALID,154,VALID,0.325,
2014-01-03, 02:31:04,VALID,917.354,VALID,0,VALID,96.5887,VALID,0,VALID,20.4244,VALID,154,VALID,0.608203,
2014-01-03, 02:32:04,VALID,917.343,VALID,0,VALID,96.5734,VALID,0,VALID,20.4259,VALID,154,VALID,0.632813,
2014-01-03, 02:33:04,VALID,917.31,VALID,0,VALID,96.5811,VALID,0,VALID,20.4049,VALID,154,VALID,0.772656,
2014-01-03, 02:34:04,VALID,917.307,VALID,0,VALID,96.5811,VALID,0,VALID,20.408,VALID,154,VALID,0.658594,
2014-01-03, 02:35:04,VALID,917.328,VALID,0,VALID,96.5887,VALID,0,VALID,20.3659,VALID,154,VALID,0.622266,
2014-01-03, 02:36:04,VALID,917.371,VALID,0,VALID,96.5734,VALID,0,VALID,20.3269,VALID,154,VALID,0.348047,
2014-01-03, 02:37:04,VALID,917.344,VALID,0,VALID,96.5811,VALID,0,VALID,20.2879,VALID,154,VALID,0.437891,
2014-01-03, 02:38:04,VALID,917.35,VALID,0,VALID,96.5582,VALID,0,VALID,20.2894,VALID,143,VALID,0.810156,
2014-01-03, 02:39:04,VALID,917.361,VALID,0,VALID,96.5887,VALID,0,VALID,20.2489,VALID,135,VALID,0.895312,
2014-01-03, 02:40:04,VALID,917.353,VALID,0,VALID,96.5582,VALID,0,VALID,20.2293,VALID,133,VALID,0.803125,
2014-01-03, 02:41:04,VALID,917.34,VALID,0,VALID,96.5734,VALID,0,VALID,20.1903,VALID,100,VALID,1.00078,
2014-01-03, 02:42:04,VALID,917.317,VALID,0,VALID,96.5887,VALID,0,VALID,20.2309,VALID,100,VALID,0.986719,
2014-01-03, 02:43:04,VALID,917.325,VALID,0,VALID,96.6192,VALID,0,VALID,20.1903,VALID,100,VALID,1.04492,
2014-01-03, 02:44:04,VALID,917.304,VALID,0,VALID,96.6115,VALID,0,VALID,20.2114,VALID,100,VALID,1.02266,
2014-01-03, 02:45:04,VALID,917.304,VALID,0,VALID,96.642,VALID,0,VALID,20.1693,VALID,100,VALID,1.11719,
2014-01-03, 02:46:04,VALID,917.266,VALID,0,VALID,96.6649,VALID,0,VALID,20.2504,VALID,100,VALID,0.9375,
2014-01-03, 02:47:04,VALID,917.285,VALID,0,VALID,96.6573,VALID,0,VALID,20.2504,VALID,100,VALID,0.746484,
2014-01-03, 02:48:04,VALID,917.271,VALID,0,VALID,96.6878,VALID,0,VALID,20.2504,VALID,100,VALID,0.830078,
2014-01-03, 02:49:04,VALID,917.246,VALID,0,VALID,96.6954,VALID,0,VALID,20.2489,VALID,100,VALID,0.863281,
2014-01-03, 02:50:04,VALID,917.259,VALID,0,VALID,96.703,VALID,0,VALID,20.2894,VALID,100,VALID,0.564844,
2014-01-03, 02:51:04,VALID,917.254,VALID,0,VALID,96.7183,VALID,0,VALID,20.2879,VALID,100,VALID,0.538281,
2014-01-03, 02:52:04,VALID,917.257,VALID,0,VALID,96.7335,VALID,0,VALID,20.3284,VALID,100,VALID,0.619141,
2014-01-03, 02:53:04,VALID,917.219,VALID,0,VALID,96.7335,VALID,0,VALID,20.3284,VALID,100,VALID,0.732031,
2014-01-03, 02:54:04,VALID,917.224,VALID,0,VALID,96.7411,VALID,0,VALID,20.3284,VALID,100,VALID,0.714453,
2014-01-03, 02:55:04,VALID,917.223,VALID,0,VALID,96.7411,VALID,0,VALID,20.3284,VALID,100,VALID,0.674609,
2014-01-03, 02:56:04,VALID,917.202,VALID,0,VALID,96.7564,VALID,0,VALID,20.3284,VALID,101,VALID,0.551562,
2014-01-03, 02:57:04,VALID,917.211,VALID,0,VALID,96.7564,VALID,0,VALID,20.2879,VALID,104,VALID,0.675,
2014-01-03, 02:58:04,VALID,917.217,VALID,0,VALID,96.7793,VALID,0,VALID,20.2879,VALID,110,VALID,0.275781,
2014-01-03, 02:59:04,VALID,917.199,VALID,0,VALID,96.7716,VALID,0,VALID,20.3284,VALID,110,VALID,0.650391,
2014-01-03, 03:00:05,VALID,917.228,VALID,0,VALID,96.7716,VALID,0,VALID,20.3464,VALID,110,VALID,0.226953,
2014-01-03, 03:01:05,VALID,917.203,VALID,0,VALID,96.7793,VALID,0,VALID,20.3869,VALID,110,VALID,0.2125,
2014-01-03, 03:02:05,VALID,917.19,VALID,0,VALID,96.7869,VALID,0,VALID,20.3659,VALID,110,VALID,0.495313,
2014-01-03, 03:03:05,VALID,917.157,VALID,0,VALID,96.8021,VALID,0,VALID,20.3659,VALID,110,VALID,0.532422,
2014-01-03, 03:04:05,VALID,917.119,VALID,0,VALID,96.8021,VALID,0,VALID,20.3854,VALID,110,VALID,0.346484,
2014-01-03, 03:05:05,VALID,917.098,VALID,0,VALID,96.8174,VALID,0,VALID,20.4259,VALID,110,VALID,0.485938,
2014-01-03, 03:06:05,VALID,917.078,VALID,0,VALID,96.8174,VALID,0,VALID,20.4049,VALID,110,VALID,0.373437,
2014-01-03, 03:07:05,VALID,917.074,VALID,0,VALID,96.8021,VALID,0,VALID,20.4454,VALID,110,VALID,0,
2014-01-03, 03:08:05,VALID,917.052,VALID,0,VALID,96.825,VALID,0,VALID,20.4454,VALID,110,VALID,0,
2014-01-03, 03:09:05,VALID,917.026,VALID,0,VALID,96.825,VALID,0,VALID,20.465,VALID,110,VALID,0,
2014-01-03, 03:10:05,VALID,917.031,VALID,0,VALID,96.8326,VALID,0,VALID,20.4634,VALID,110,VALID,0,
2014-01-03, 03:11:05,VALID,917.027,VALID,0,VALID,96.8174,VALID,0,VALID,20.4845,VALID,110,VALID,0,
2014-01-03, 03:12:05,VALID,917.05,VALID,0,VALID,96.825,VALID,0,VALID,20.4634,VALID,110,VALID,0,
2014-01-03, 03:13:05,VALID,917.057,VALID,0,VALID,96.8403,VALID,0,VALID,20.4845,VALID,110,VALID,0,
2014-01-03, 03:14:05,VALID,917.026,VALID,0,VALID,96.8479,VALID,0,VALID,20.4845,VALID,110,VALID,0,
2014-01-03, 03:15:05,VALID,917.003,VALID,0,VALID,96.8326,VALID,0,VALID,20.5235,VALID,110,VALID,0,
2014-01-03, 03:16:05,VALID,916.984,VALID,0,VALID,96.8479,VALID,0,VALID,20.4829,VALID,110,VALID,0,
2014-01-03, 03:17:05,VALID,916.966,VALID,0,VALID,96.8479,VALID,0,VALID,20.465,VALID,110,VALID,0.352344,
2014-01-03, 03:18:05,VALID,916.995,VALID,0,VALID,96.8631,VALID,0,VALID,20.465,VALID,110,VALID,0.307422,
2014-01-03, 03:19:05,VALID,916.995,VALID,0,VALID,96.8631,VALID,0,VALID,20.4634,VALID,110,VALID,0.133203,
2014-01-03, 03:20:05,VALID,916.97,VALID,0,VALID,96.8555,VALID,0,VALID,20.4845,VALID,110,VALID,0,
2014-01-03, 03:21:05,VALID,916.966,VALID,0,VALID,96.8707,VALID,0,VALID,20.465,VALID,110,VALID,0.251953,
2014-01-03, 03:22:05,VALID,916.959,VALID,0,VALID,96.8784,VALID,0,VALID,20.4439,VALID,110,VALID,0.370313,
2014-01-03, 03:23:05,VALID,916.96,VALID,0,VALID,96.8707,VALID,0,VALID,20.4829,VALID,110,VALID,0.478906,
2014-01-03, 03:24:05,VALID,916.983,VALID,0,VALID,96.886,VALID,0,VALID,20.4845,VALID,110,VALID,0.599219,
2014-01-03, 03:25:05,VALID,916.962,VALID,0,VALID,96.8707,VALID,0,VALID,20.4634,VALID,110,VALID,0.572656,
2014-01-03, 03:26:05,VALID,916.977,VALID,0,VALID,96.8936,VALID,0,VALID,20.4439,VALID,110,VALID,0.285156,
2014-01-03, 03:27:05,VALID,916.97,VALID,0,VALID,96.8936,VALID,0,VALID,20.4845,VALID,110,VALID,0.510547,
2014-01-03, 03:28:05,VALID,916.967,VALID,0,VALID,96.886,VALID,0,VALID,20.4829,VALID,110,VALID,0.50625,
2014-01-03, 03:29:05,VALID,916.963,VALID,0,VALID,96.886,VALID,0,VALID,20.504,VALID,110,VALID,0.520312,
2014-01-03, 03:31:04,VALID,916.941,VALID,0,VALID,96.8784,VALID,0,VALID,20.5024,VALID,110,VALID,0.0160156,
2014-01-03, 03:32:04,VALID,916.925,VALID,0,VALID,96.9089,VALID,0,VALID,20.4829,VALID,110,VALID,0.516797,
2014-01-03, 03:33:04,VALID,916.917,VALID,0,VALID,96.9012,VALID,0,VALID,20.4634,VALID,112,VALID,0.246875,
2014-01-03, 03:34:04,VALID,916.909,VALID,0,VALID,96.8936,VALID,0,VALID,20.4634,VALID,112,VALID,0.479688,
2014-01-03, 03:35:04,VALID,916.873,VALID,0,VALID,96.9165,VALID,0,VALID,20.4634,VALID,112,VALID,0.499219,
2014-01-03, 03:36:04,VALID,916.856,VALID,0,VALID,96.9012,VALID,0,VALID,20.4439,VALID,112,VALID,0.392578,
2014-01-03, 03:37:04,VALID,916.849,VALID,0,VALID,96.8936,VALID,0,VALID,20.4439,VALID,114,VALID,0.727734,
2014-01-03, 03:38:04,VALID,916.826,VALID,0,VALID,96.9165,VALID,0,VALID,20.4244,VALID,114,VALID,0.745313,
2014-01-03, 03:39:04,VALID,916.783,VALID,0,VALID,96.9165,VALID,0,VALID,20.4244,VALID,114,VALID,0.590234,
2014-01-03, 03:40:04,VALID,916.816,VALID,0,VALID,96.9165,VALID,0,VALID,20.4454,VALID,114,VALID,0.552344,
2014-01-03, 03:41:04,VALID,916.768,VALID,0,VALID,96.9165,VALID,0,VALID,20.4244,VALID,114,VALID,0.686719,
2014-01-03, 03:42:04,VALID,916.769,VALID,0,VALID,96.9394,VALID,0,VALID,20.4049,VALID,114,VALID,0.774609,
2014-01-03, 03:43:04,VALID,916.773,VALID,0,VALID,96.9241,VALID,0,VALID,20.4244,VALID,114,VALID,0.59375,
2014-01-03, 03:44:04,VALID,916.762,VALID,0,VALID,96.9317,VALID,0,VALID,20.4049,VALID,114,VALID,0.521484,
2014-01-03, 03:45:04,VALID,916.774,VALID,0,VALID,96.9317,VALID,0,VALID,20.3854,VALID,114,VALID,0.110937,
2014-01-03, 03:46:04,VALID,916.767,VALID,0,VALID,96.9317,VALID,0,VALID,20.3854,VALID,114,VALID,0.300781,
2014-01-03, 03:47:04,VALID,916.798,VALID,0,VALID,96.9317,VALID,0,VALID,20.3854,VALID,114,VALID,0.503516,
2014-01-03, 03:48:04,VALID,916.786,VALID,0,VALID,96.9394,VALID,0,VALID,20.3854,VALID,114,VALID,0.640625,
2014-01-03, 03:49:04,VALID,916.782,VALID,0,VALID,96.9394,VALID,0,VALID,20.3464,VALID,114,VALID,0.538672,